Regional Weather Roundup
Issued by NWS

Home | Current Version | Previous Version | Text Only | Print | Product List | Glossary Off
Versions: 1 2 3 4 5 6 7 8 9 10 11 12 13 14 15 16 17 18 19 20 21 22 23 24 25 26 27 28 29 30 31 32 33 34 35 36 37 38 39 40 41 42 43 44 45 46 47 48 49 50

000
ASUS43 KOAX 141302
RWRNE

WEATHER ROUNDUP FOR NEBRASKA
NATIONAL WEATHER SERVICE OMAHA NE
700 AM CST SUN FEB 14 2016

NOTES: SATELLITE DATA IS BEING USED TO AUGMENT CLOUD COVER ABOVE
       12000 FEET.
       "FAIR" INDICATES FEW OR NO CLOUDS BELOW 12,000 FEET WITH NO
       SIGNIFICANT WEATHER AND/OR OBSTRUCTIONS TO VISIBILITY.

  * THESE STATIONS DO NOT REPORT WEATHER SUCH AS RAIN...SNOW OR FOG.

NEZ001>004-019>022-054>056-141400-
NEBRASKA PANHANDLE

CITY           SKY/WX    TMP DP  RH WIND       PRES   REMARKS
SCOTTSBLUFF    CLOUDY    28  23  81 W5        29.90F WCI  23
ALLIANCE       CLOUDY    31  23  72 NW12      29.88F WCI  22
CHADRON        CLOUDY    27  22  81 VRB3      29.90F
KIMBALL        CLOUDY    28  22  78 CALM      29.91S
SIDNEY         CLOUDY    27  22  81 NW10      29.92F WCI  17
$$

NEZ057>060-069>072-079>082-141400-
SOUTHWEST NEBRASKA

CITY           SKY/WX    TMP DP  RH WIND       PRES   REMARKS
NORTH PLATTE   CLEAR     27  22  81 W9        29.90F WCI  18
IMPERIAL       CLEAR     31  23  72 NW9       29.92F WCI  23
LEXINGTON      CLEAR     32  26  78 W12       29.90F WCI  23
MCCOOK         CLEAR     33  25  72 W12       29.93F WCI  24
$$

NEZ005>010-023>029-035>040-094-141400-
NORTH CENTRAL NEBRASKA

CITY           SKY/WX    TMP DP  RH WIND       PRES   REMARKS
VALENTINE      CLEAR     31  27  85 NW9       29.83F WCI  23
AINSWORTH      CLEAR     33  29  85 NW9       29.83F WCI  25
BROKEN BOW     CLEAR     35  27  72 W12       29.86S WCI  27
ORD            MOCLDY    38  29  70 W16       29.84R WCI  29
$$

NEZ041-046>049-061>064-073>077-083>087-141400-
SOUTH CENTRAL NEBRASKA

CITY           SKY/WX    TMP DP  RH WIND       PRES   REMARKS
GRAND ISLAND   CLEAR     28  23  81 W12       29.86S WCI  18
HASTINGS       CLEAR     21  16  81 SW8       29.88S WCI  11
HEBRON         CLEAR     20  12  70 SW8       29.93F WCI  10
KEARNEY *      CLEAR     32  25  74 W13       29.88S WCI  22
YORK           PTCLDY    19  16  86 SW12      29.86F WCI   7
$$

NEZ011>018-030>034-042>045-141400-
NORTHEAST NEBRASKA

CITY           SKY/WX    TMP DP  RH WIND       PRES   REMARKS
NORFOLK        CLOUDY    23  20  88 S5        29.81S WCI  17
BLAIR          CLOUDY    21  11  63 S14       29.89S WCI   8
COLUMBUS *     CLOUDY    25  12  58 SW10      29.84S WCI  15
FREMONT        CLOUDY    20  12  72 S12       29.88F WCI   8
TEKAMAH        CLOUDY    19  13  77 SE13      29.90F WCI   6
$$

NEZ050>053-065>068-078-088>093-141400-
SOUTHEAST NEBRASKA

CITY           SKY/WX    TMP DP  RH WIND       PRES   REMARKS
LINCOLN        CLOUDY    22  11  62 S10       29.91F WCI  11
OMAHA EPPLEY   CLOUDY    22   9  57 S14       29.93F WCI   9
BEATRICE       CLOUDY    21   8  59 S13       29.93F WCI   8
FALLS CITY     CLOUDY    24   7  48 S13       29.96F WCI  12
NEBRASKA CITY  CLOUDY    23   7  50 S15       29.92F WCI  10
PLATTSMOUTH    CLOUDY    22   9  57 S15       29.91S WCI   9
$$

NEZ044-045-051>053-067-141400-
OMAHA AREA

CITY           SKY/WX    TMP DP  RH WIND       PRES   REMARKS
OMAHA EPPLEY   CLOUDY    22   9  57 S14       29.93F WCI   9
BLAIR          CLOUDY    21  11  63 S14       29.89S WCI   8
FREMONT        CLOUDY    20  12  72 S12       29.88F WCI   8
OFFUTT AFB     CLOUDY    23   9  54 S13       29.92F WCI  11
PLATTSMOUTH    CLOUDY    22   9  57 S15       29.91S WCI   9
WAHOO          CLOUDY    22  13  68 S13       29.88F WCI  10
$$



USA.gov is the U.S. government's official web portal to all federal, state and local government web resources and services.